Location: Peers
(53.6667°N, 115.9833°W)
Time: 12:05:07
(UTC+00:00)

Envisat - Visible Passes

Search period start: 02 December 2021 00:00
Search period end: 12 December 2021 00:00
Orbit: 764 x 766 km, 98.2° (Epoch: 02 December)

Date Brightness Start Highest point End Pass type
(mag) Time Alt. Az. Time Alt. Az. Time Alt. Az.
02 Dec 6.0 01:27:39 10° WSW 01:30:17 14° W 01:32:55 10° NW visible
02 Dec 5.2 11:48:03 10° NE 11:52:08 24° E 11:56:10 10° SE visible
02 Dec 2.9 13:26:32 10° N 13:31:36 64° WNW 13:36:36 10° SSW visible
03 Dec 5.3 00:48:41 10° SSW 00:52:56 26° W 00:57:13 10° NW visible
03 Dec 6.0 11:12:40 10° ENE 11:14:44 12° E 11:16:47 10° ESE visible
03 Dec 3.2 12:49:38 10° NNE 12:54:44 69° ESE 12:59:48 10° S visible
03 Dec 4.0 14:29:18 10° N 14:33:21 24° WNW 14:37:22 10° WSW visible
04 Dec 4.1 00:10:51 10° S 00:15:46 50° W 00:20:45 10° NNW visible
04 Dec 4.4 12:12:58 10° NNE 12:17:41 36° E 12:22:21 10° SSE visible
04 Dec 3.3 13:52:00 10° N 13:56:47 42° WNW 14:01:33 10° SW visible
05 Dec 5.9 01:15:15 10° SW 01:18:33 17° W 01:21:52 10° NW visible
05 Dec 5.4 11:36:46 10° NE 11:40:26 20° E 11:44:05 10° SE visible
05 Dec 2.9 13:14:57 10° NNE 13:20:03 77° WNW 13:25:08 10° SSW visible
05 Dec 4.4 14:55:07 10° NNW 14:58:20 17° NW 15:01:32 10° W visible
06 Dec 5.0 00:36:44 10° SSW 00:41:15 32° W 00:45:50 10° NNW visible
06 Dec 3.6 12:38:06 10° NNE 12:43:08 57° E 12:48:08 10° S visible
06 Dec 3.8 14:17:35 10° N 14:21:54 29° WNW 14:26:12 10° WSW visible
06 Dec 3.7 23:59:09 10° S 00:04:10 61° WSW 00:09:14 10° NNW visible
07 Dec 6.3 01:43:15 10° W 01:44:17 11° W 01:45:19 10° WNW visible
07 Dec 4.8 12:01:33 10° NNE 12:06:02 30° E 12:10:29 10° SSE visible
07 Dec 3.1 13:40:22 10° N 13:45:17 50° WNW 13:50:11 10° SW visible
08 Dec 5.7 01:03:04 10° SW 01:06:50 21° W 01:10:39 10° NW visible
08 Dec 5.7 11:25:36 10° NE 11:28:43 16° E 11:31:50 10° ESE visible
08 Dec 2.9 13:03:22 10° NNE 13:08:30 88° E 13:13:35 10° SSW visible
08 Dec 4.2 14:43:18 10° N 14:46:55 20° NW 14:50:32 10° W visible
09 Dec 4.6 00:24:53 10° SSW 00:29:37 39° W 00:34:23 10° NNW visible
09 Dec 3.9 12:26:36 10° NNE 12:31:31 47° E 12:36:24 10° S visible
09 Dec 3.6 14:05:54 10° N 14:10:26 34° WNW 14:14:58 10° SW visible
10 Dec 6.0 01:30:09 10° WSW 01:32:31 13° W 01:34:55 10° NW visible
10 Dec 5.1 11:50:11 10° NE 11:54:21 25° E 11:58:31 10° SE visible
10 Dec 2.9 13:28:45 10° N 13:33:46 61° WNW 13:38:46 10° SSW visible
11 Dec 5.4 00:50:59 10° SSW 00:55:09 25° W 00:59:21 10° NW visible
11 Dec 5.9 11:14:37 10° NE 11:16:59 13° E 11:19:20 10° ESE visible
11 Dec 3.1 12:51:49 10° NNE 12:56:55 73° ESE 13:02:00 10° S visible
11 Dec 4.0 14:31:32 10° N 14:35:29 23° NW 14:39:26 10° WSW visible
